PORT of CHALKI

کشور: Greece کشور: Greece [GR]
طول و عرض جغرافیایی: 36.221375° / 27.615645° نمایش بر روی نقشه
ساعت محلی:  [UTC +3]
UN/LOCODE: GRHAL
شناور در حال حاظر در اسکله است: 1

ورود و خروج تازه


اسم شناور
رسیدن به مقصد (UTC)
رسیدن به مقصد (LT)
خروج کشتی (UTC)
خروج کشتی (LT)
Vessel Type: قایق تند رو  DODEKANISOS EXPRESS 2014-08-28 13:25:00 2014-08-28 16:25:00 2014-08-28 13:39:00 2014-08-28 16:39:00
Vessel Type: شناور مسافربر  FEDON 2014-08-28 07:04:00 2014-08-28 10:04:00 2014-08-28 13:05:00 2014-08-28 16:05:00
Vessel Type: شناور مسافربر  PREVELIS 2014-08-28 08:09:00 2014-08-28 11:09:00 2014-08-28 08:25:00 2014-08-28 11:25:00
Vessel Type: شناور مسافربر  ULUCINAR 2014-08-27 16:00:00 2014-08-27 19:00:00 2014-08-28 07:43:00 2014-08-28 10:43:00
Vessel Type: تفریحی یا چیزه دیگر  NECTON 2014-08-27 13:51:00 2014-08-27 16:51:00 2014-08-28 05:42:00 2014-08-28 08:42:00
Vessel Type: شناور مسافربر  FEDON 2014-08-27 16:44:00 2014-08-27 19:44:00 2014-08-28 03:34:00 2014-08-28 06:34:00
Vessel Type: شناور مسافربر  PREVELIS 2014-08-27 21:47:00 2014-08-28 00:47:00 2014-08-27 22:01:00 2014-08-28 01:01:00
Vessel Type: شناور مسافربر  FEDON 2014-08-27 07:07:00 2014-08-27 10:07:00 2014-08-27 13:04:00 2014-08-27 16:04:00
Vessel Type: تفریحی یا چیزه دیگر  GITANA IV 2014-08-26 15:01:00 2014-08-26 18:01:00 2014-08-27 09:27:00 2014-08-27 12:27:00
Vessel Type: تفریحی یا چیزه دیگر  SHINDELA 2014-08-26 15:25:00 2014-08-26 18:25:00 2014-08-27 06:41:00 2014-08-27 09:41:00

منتظررسیدن


اسم شناور
Scheduled Arrival (UTC)
برنامه ورود به ساعت محلی
تخمین زمان رسیدن (UTC)
تخمین زمان رسیدن به ساعت محلی
هیچ ثبتی یافت نشد

Wind Forecast


    
ساعت جهانی
سرعت
Direction
Temperature
2014-08-29 12:00:00 12 knots 303° 27°C
2014-08-29 15:00:00 11 knots 296° 27°C
2014-08-29 18:00:00 8 knots 309° 27°C
2014-08-29 21:00:00 4 knots 336° 27°C
2014-08-30 00:00:00 4 knots 351° 27°C
2014-08-30 03:00:00 6 knots 358° 26°C
2014-08-30 06:00:00 6 knots 343° 26°C
2014-08-30 09:00:00 8 knots 304° 27°C
2014-08-30 12:00:00 11 knots 299° 26°C
2014-08-30 15:00:00 11 knots 302° 26°C
2014-08-30 18:00:00 8 knots 300° 26°C
2014-08-30 21:00:00 8 knots 281° 26°C
2014-08-31 00:00:00 9 knots 286° 26°C
2014-08-31 03:00:00 9 knots 314° 26°C
2014-08-31 06:00:00 12 knots 310° 26°C
2014-08-31 09:00:00 14 knots 299° 26°C